Погода в Шаготи

Россия / Ярославская область     58°11′57″N   39°37′09″E
темп.,
°C
ветер,
м/с
пор.,
м/с
влажн.,
%
обл.,
%
осадки,
мм/ч
давл.,
гПа
погр.,
м
19 апреля, пн
пн1900:00+4всв41080100 0.0 1028545
03:00+2всв41079100 0.0 1029399
06:00+1всв4108093 0.0 1029454
09:00+4в59565 0.0 1030819
12:00+8в58394 0.0 10291503
15:00+9в57385 0.0 10291783
18:00+8в47455 0.0 10281728
21:00+4в310580 0.0 1030451
20 апреля, вт
вт2000:00+1в411670 0.0 1030483
03:000в4117448 0.0 1030397
06:00−1в4127017 0.0 1029443
09:00+4вюв5104884 0.0 1028843
12:00+8вюв6944100 0.0 10261451
15:00+10вюв5944100 0.0 10241679
18:00+9вюв5115080 0.0 10221460
21:00+6вюв51252100 0.0 1020955
21 апреля, ср
ср2100:00+4в51453100 0.0 1018834
03:00+3в61458100 0.0 1014885
06:000в61796100 1.7 1010858
09:00+1в61696100 5.5 1007790
12:00+2вюв61697100 2.9 1004815
15:00+3вюв61596100 4.9 10021010
18:00+3ююв4998100 2.3 1002846
21:00+2юз61297100 2.6 1005867
22 апреля, чт
чт2200:00+2ююз51193100 0.1 1008805
03:00+3ю41193100 0.1 1010595
06:00+3ююз51192100 0.0 1011800
09:00+4ююз41090100 0.0 1012923
12:00+7ююз5980100 0.1 10131091
15:00+9ююз5975100 0.4 10141142
18:00+8ююз488097 0.1 1015608
21:00+5ююв389215 0.1 1016146
23 апреля, пт
пт2300:00+4ююв389484 0.0 1016161
03:00+4ююв279712 0.0 1016141
06:00+4ююв389711 0.0 1016188
09:00+10ю498149 0.0 1015482
12:00+14ю6106695 0.1 10151317
15:00+15ю5106576 1.4 10131471
18:00+13ююв5116864 1.1 1013697
21:00+10ююв5157989 1.1 1012577